SL-3 R/B (19046 NORAD) Tracking and Keplerian Element Data

This shows tracking and keplerian element data for the satellite.

Feedback or suggestion? Click here.




ElementValue
Catalog19046
NameSL-3 R/B
Epoch Orbit99163
Epoch Day34.9340369
Epoch Year2025
RAAN17.409
Inclination97.4757
Eccentricity0.002946
Argument of Perigee175.3936
Mean Anonmoly184.7572
Mean Motion15.14455047
Decay Rate7.459E-05
L11 19046U 88032B 25034.93403690 .00007459 00000+0 40484-3 0 9996
L22 19046 97.4757 17.4090 0029460 175.3936 184.7572 15.14455047991635



Live tracking and technical data element details for SL-3 R/B (NORAD 19046). SL-3 R/B can be tracked NOW for your location showing map with azimuth and elevation plus other details from your city location.







IsCatalogInMostPopularTable: catalog: 19046, numindb: 509
Update: records affected: 1



GetName: 19046 SL-3 R/B

Hit Count: updated at: Thu, 15 May 2025 18:59:40 GMT